(L51) MARGO, Nauchnij  (N44.729398 E34.016400)  Ukraine.  Observer G. Borisov.
    0.4-m f/2.3 astrograph + CCD.
(W62) Comet Hunter Observatory2, New Ringgold  (N40.745185 W75.862390)
   US/Pennsylvania.  Observer J. Maikner. 0.30-m f/3.8 Riccardi-Honders + CCD.

Orbital elements:  ZTm0002
   Perihelion 2022 Jul 27.39454 +/- 0.0414 TT =  9:28:08 (JD 2459787.89454)
Epoch 2022 Sep  7.0 TT = JDT 2459829.5                        AutoNEOCP
M   0.00887298 +/- 0.0016           (J2000 ecliptic)
n   0.00021326 +/- 3.87e-5          Peri.    0.10932 +/- 0.014
a 277.453121 +/- 34.1               Node    72.23822 +/- 0.0026
e   0.9907667 +/- 0.00112           Incl.   59.51622 +/- 0.0036
P4621.52                   H 13.7   G  0.15   U  5.9
q 2.56180647 +/- 0.000456    Q 552.344437 +/- 68.7
81 of 83 observations 2022 Aug. 2-Sept. 7; mean residual 0".37
Residuals in arcseconds: 
220802 I41  .73-  .68-    220810 G40  .48-  .11+    220828 I93  .58+  .57-    
220802 I41  .32-  .21-    220814 204  .63+  .29+    220828 I93  .19-  .26+    
220802 I41  .08+  .06-    220814 204  .70+  .01-    220828 I93  .11+  .43+    
220802 I41  .20+  .03-    220816 I41  .18+  .07+    220828 J22  .07+  .27-    
220802 I41  .08-  .22+    220816 I41  .43+  .16-    220828 J22  .14-  .32-    
220805 I41  .34+  .09+    220816 I41  .17+  .14+    220828 J22  .48-  .27-    
220805 I41  .01+  .06+    220816 I41  .15+  .30-    220829 K74  .01+  .09+    
220805 I41  .06+  .06+    220818 950  .30-  .33+    220829 K74  .39+  .15-    
220805 I41  .14-  .19-    220818 950  .37+  .33+    220829 K74  .50+  .29+    
220806 I41  .35-  .19-    220820 204  .04-  .01+    220831 A77  .34+  .82+    
220806 I41  .04-  .21-    220820 L06  1.4-  .15-    220831 A77  .59+  .64+    
220806 I41  .14+  .14-    220820 L06  1.4-  .64-    220901 W62  .04-  .12+    
220806 I41  .32+  .27-    220820 204  .04-  .01+    220901 W62  .03-  .13+    
220806 I41  .18-  .10-    220820 L06( 1.6-  .28-)   220901 W62  .13-  .06-    
220807 L51  .16-  .46-    220821 I41  .29+  .31-    220902 I22  .31+  .36-    
220807 L51  .23-  .66-    220821 I41  .19+  .19+    220902 I22  .17-  .07+    
220807 L51  .55+  .05+    220821 I41  .11+  .13-    220903 595  .40-  .17-    
220808 H06  .01-  .06-    220821 I41  .32+  .13-    220903 595  .08-  .27-    
220808 H06  .13+  .05+    220824 C95  .21+  .11+    220903 595  .38-  .27-    
220808 H06  .54+  .06+    220824 C95  .42+  .14-    220905 104  .36-  .04-    
220809 G00  .11+  .55+    220825 L01  .04+  .29-    220905 104  .19-  .20+    
220809 G00  .20+  .14+    220825 L01  .01+  .19-    220905 A77  .15+  .47+    
220809 G00  .12-  .23+    220825 L01  .01-  .19-    220905 A77  .41+  .59+    
220809 215  .37+  .19+    220825 K74  .40-  .14-    220905 A77  .68+  .70+    
220809 215( 1.7+  1.1+)   220825 K74  .09-  .47-    220907 118  .11-  .07-    
220809 G40  .34-  .93+    220825 K74  .54-  .00     220907 118  .11-  .61-    
220809 G40  .36+  .89+    220825 G40  .48-  .20-    220907 118  .11-  .63-    
220810 G40  .85-  .11-    220825 G40  .06-  .15+    

Ephemerides (geocentric):
Date (UTC) HH   RA             Dec           delta  r     elong  mag " sig PA
---- --------  ------------   ------------  ------ ------ -----  --- --------
2022 09 08 01  06 50 32.679   +34 13 13.39  2.8628 2.6020  65.0 19.1 .156 149
2022 09 08 02  06 50 36.550   +34 13 55.13  2.8624 2.6021  65.0 19.1 .157 149
2022 09 08 03  06 50 40.421   +34 14 36.88  2.8619 2.6021  65.0 19.1 .158 149
2022 09 08 04  06 50 44.291   +34 15 18.64  2.8615 2.6022  65.1 19.1 .160 149
2022 09 08 05  06 50 48.162   +34 16 00.41  2.8610 2.6023  65.1 19.1 .161 149
2022 09 08 06  06 50 52.032   +34 16 42.20  2.8606 2.6024  65.1 19.1 .162 149
2022 09 08 07  06 50 55.903   +34 17 23.99  2.8601 2.6024  65.1 19.1 .163 149
2022 09 08 08  06 50 59.773   +34 18 05.80  2.8597 2.6025  65.2 19.1 .164 149
2022 09 08 09  06 51 03.642   +34 18 47.61  2.8592 2.6026  65.2 19.1 .165 149
2022 09 08 10  06 51 07.512   +34 19 29.44  2.8588 2.6027  65.2 19.1 .167 149
2022 09 08 11  06 51 11.382   +34 20 11.28  2.8583 2.6028  65.3 19.1 .168 150
2022 09 08 12  06 51 15.251   +34 20 53.13  2.8579 2.6028  65.3 19.1 .169 150
2022 09 08 13  06 51 19.120   +34 21 34.99  2.8574 2.6029  65.3 19.1 .170 150
2022 09 08 14  06 51 22.989   +34 22 16.87  2.8570 2.6030  65.3 19.1 .171 150
2022 09 08 15  06 51 26.858   +34 22 58.75  2.8565 2.6031  65.4 19.1 .173 150
2022 09 08 16  06 51 30.727   +34 23 40.64  2.8561 2.6032  65.4 19.1 .174 150
2022 09 08 17  06 51 34.595   +34 24 22.55  2.8556 2.6032  65.4 19.1 .175 150
2022 09 08 18  06 51 38.463   +34 25 04.47  2.8552 2.6033  65.5 19.1 .176 150
2022 09 08 19  06 51 42.331   +34 25 46.40  2.8547 2.6034  65.5 19.1 .178 150
2022 09 08 20  06 51 46.199   +34 26 28.34  2.8543 2.6035  65.5 19.1 .179 150
2022 09 08 21  06 51 50.067   +34 27 10.29  2.8538 2.6035  65.5 19.1 .180 150
2022 09 08 22  06 51 53.935   +34 27 52.26  2.8534 2.6036  65.6 19.1 .181 150
2022 09 08 23  06 51 57.802   +34 28 34.23  2.8529 2.6037  65.6 19.1 .183 150
2022 09 09 00  06 52 01.669   +34 29 16.22  2.8525 2.6038  65.6 19.1 .184 150
2022 09 09 01  06 52 05.536   +34 29 58.21  2.8520 2.6039  65.7 19.1 .185 150
2022 09 09 02  06 52 09.403   +34 30 40.22  2.8516 2.6039  65.7 19.1 .186 150
2022 09 09 03  06 52 13.270   +34 31 22.24  2.8511 2.6040  65.7 19.1 .188 150
2022 09 09 04  06 52 17.136   +34 32 04.28  2.8507 2.6041  65.7 19.1 .189 150
2022 09 09 05  06 52 21.003   +34 32 46.32  2.8502 2.6042  65.8 19.1 .190 150
2022 09 09 06  06 52 24.869   +34 33 28.37  2.8498 2.6043  65.8 19.1 .191 150
2022 09 09 07  06 52 28.735   +34 34 10.44  2.8493 2.6043  65.8 19.1 .193 150
2022 09 09 08  06 52 32.600   +34 34 52.52  2.8489 2.6044  65.9 19.1 .194 150
2022 09 09 09  06 52 36.466   +34 35 34.61  2.8484 2.6045  65.9 19.1 .195 150
2022 09 09 10  06 52 40.331   +34 36 16.71  2.8480 2.6046  65.9 19.1 .197 150
2022 09 09 11  06 52 44.197   +34 36 58.82  2.8475 2.6047  65.9 19.1 .198 150
2022 09 09 12  06 52 48.062   +34 37 40.94  2.8470 2.6047  66.0 19.1 .199 150
2022 09 09 13  06 52 51.926   +34 38 23.08  2.8466 2.6048  66.0 19.1 .201 150
2022 09 09 14  06 52 55.791   +34 39 05.23  2.8461 2.6049  66.0 19.1 .202 150
2022 09 09 15  06 52 59.656   +34 39 47.38  2.8457 2.6050  66.1 19.1 .203 151
2022 09 09 16  06 53 03.520   +34 40 29.55  2.8452 2.6051  66.1 19.1 .204 151
2022 09 09 17  06 53 07.384   +34 41 11.73  2.8448 2.6051  66.1 19.1 .206 151
2022 09 09 18  06 53 11.248   +34 41 53.93  2.8443 2.6052  66.1 19.1 .207 151
2022 09 09 19  06 53 15.111   +34 42 36.13  2.8439 2.6053  66.2 19.1 .208 151
2022 09 09 20  06 53 18.975   +34 43 18.35  2.8434 2.6054  66.2 19.1 .210 151
2022 09 09 21  06 53 22.838   +34 44 00.58  2.8430 2.6055  66.2 19.1 .211 151
2022 09 09 22  06 53 26.702   +34 44 42.81  2.8425 2.6056  66.3 19.1 .212 151
2022 09 09 23  06 53 30.564   +34 45 25.07  2.8421 2.6056  66.3 19.1 .214 151
2022 09 10 00  06 53 34.427   +34 46 07.33  2.8416 2.6057  66.3 19.1 .215 151